HK6REC-21 Weather Reports


time (UTC)temp
F
wind
direction
speed
knots
gust
knots
rain 1hr
in
rain 24hr
in
rain mn
in
humidity
%
barometer
mb
20260508013829 67 220 7.0 0.0 0.00 0.00 0.00 70 1014.0
20260508011828 67 220 7.0 0.0 0.00 0.00 0.00 70 1014.0
20260508005827 67 220 7.0 0.0 0.00 0.00 0.00 69 1013.0
20260508003826 67 220 7.0 0.0 0.00 0.00 0.00 69 1012.0
20260508001825 68 220 7.0 0.0 0.00 0.00 0.00 68 1011.0
20260507235824 69 220 7.8 0.0 0.00 0.00 0.00 66 1011.0
20260507233823 71 220 7.8 0.0 0.00 0.00 0.00 66 1011.0
20260507231823 72 220 7.8 0.0 0.00 0.00 0.00 69 1011.0
20260507225821 72 220 4.3 0.0 0.00 0.00 0.00 72 1010.0
20260507223820 72 220 4.3 0.0 0.00 0.00 0.00 72 1010.0
20260507221819 72 220 4.3 0.0 0.00 0.00 0.00 72 1010.0
20260507215818 73 220 4.3 0.0 0.00 0.00 0.00 72 1009.0
20260507213817 73 220 4.3 0.0 0.00 0.00 0.00 72 1009.0
20260507211816 73 220 4.3 0.0 0.00 0.00 0.00 72 1010.0
20260507205816 74 220 4.3 0.0 0.00 0.00 0.00 72 1009.0
20260507203815 74 220 4.3 0.0 0.00 0.00 0.00 72 1009.0
20260507201814 74 220 4.3 0.0 0.00 0.00 0.00 72 1009.0
20260507195813 75 220 4.3 0.0 0.00 0.00 0.00 72 1008.0
20260507193812 75 220 4.3 0.0 0.00 0.00 0.00 72 1009.0
20260507191811 75 220 4.3 0.0 0.00 0.00 0.00 72 1010.0
20260507185810 76 0 3.5 0.0 0.00 0.00 0.00 71 1009.0
20260507183809 76 0 3.5 0.0 0.00 0.00 0.00 71 1009.0
20260507181808 76 220 4.3 0.0 0.00 0.00 0.00 71 1011.0
20260507175807 76 220 4.3 0.0 0.00 0.00 0.00 72 1010.0
20260507173806 75 220 4.3 0.0 0.00 0.00 0.00 72 1011.0
20260507171805 75 220 4.3 0.0 0.00 0.00 0.00 72 1013.0
20260507165804 76 220 4.3 0.0 0.00 0.00 0.00 73 1012.0
20260507163803 72 0 0.9 0.0 0.00 0.00 0.00 83 1013.0
20260507161802 72 0 0.9 0.0 0.00 0.00 0.00 83 1015.0
20260507155802 74 0 1.7 0.0 0.00 0.00 0.00 83 1014.0
20260507153801 71 0 0.9 0.0 0.00 0.00 0.00 83 1014.0
20260507151800 71 0 0.9 0.0 0.00 0.00 0.00 83 1016.0
20260507145759 72 0 0.9 0.0 0.00 0.00 0.00 83 1015.0
20260507143758 74 0 1.7 0.0 0.00 0.00 0.00 83 1015.0
20260507141757 68 0 1.7 0.0 0.00 0.00 0.00 81 1016.0
20260507135756 66 0 0.9 0.0 0.00 0.00 0.00 81 1016.0
20260507133755 67 0 0.9 0.0 0.00 0.00 0.00 81 1016.0
20260507131754 66 0 0.9 0.0 0.00 0.00 0.00 78 1016.0
20260507125753 66 297 0.9 0.0 0.00 0.00 0.00 75 1016.0
20260507123752 58 210 7.0 0.0 0.00 0.00 0.00 81 1016.0
20260507121751 59 210 7.0 0.0 0.00 0.00 0.00 81 1015.0
20260507115750 59 210 7.0 0.0 0.00 0.00 0.00 81 1015.0
20260507113749 59 210 7.0 0.0 0.00 0.00 0.00 81 1015.0
20260507111748 59 210 7.0 0.0 0.00 0.00 0.00 81 1016.0
20260507105747 59 210 7.0 0.0 0.00 0.00 0.00 82 1015.0
20260507103746 59 210 7.0 0.0 0.00 0.00 0.00 82 1015.0
20260507101746 59 210 7.0 0.0 0.00 0.00 0.00 82 1016.0
20260507095745 59 210 7.0 0.0 0.00 0.00 0.00 81 1015.0
20260507093744 59 210 7.0 0.0 0.00 0.00 0.00 81 1015.0
20260507091743 59 210 7.0 0.0 0.00 0.00 0.00 81 1016.0
20260507085742 60 210 7.0 0.0 0.00 0.00 0.00 81 1015.0
20260507083741 60 210 7.0 0.0 0.00 0.00 0.00 81 1015.0
20260507081740 60 210 7.0 0.0 0.00 0.00 0.00 81 1016.0
20260507075739 60 210 7.0 0.0 0.00 0.00 0.00 81 1015.0
20260507073738 60 210 7.0 0.0 0.00 0.00 0.00 81 1015.0
20260507071737 60 210 7.0 0.0 0.00 0.00 0.00 81 1016.0
20260507065736 60 210 7.0 0.0 0.00 0.00 0.00 81 1015.0
20260507063735 60 210 7.0 0.0 0.00 0.00 0.00 81 1015.0
20260507061734 60 210 7.0 0.0 0.00 0.00 0.00 81 1016.0
20260507055733 60 210 7.0 0.0 0.00 0.00 0.00 80 1015.0
20260507053732 60 210 7.0 0.0 0.00 0.00 0.00 80 1016.0
20260507051731 60 210 7.0 0.0 0.00 0.00 0.00 80 1017.0
20260507045730 60 210 7.0 0.0 0.00 0.00 0.00 80 1016.0
20260507043729 60 210 7.0 0.0 0.00 0.00 0.00 80 1016.0
20260507041728 60 210 7.0 0.0 0.00 0.00 0.00 80 1017.0
20260507035727 61 210 7.0 0.0 0.00 0.00 0.00 80 1016.0
20260507033726 61 210 7.0 0.0 0.00 0.00 0.00 80 1016.0
20260507031726 61 210 7.0 0.0 0.00 0.00 0.00 80 1016.0
20260507025725 62 210 7.0 0.0 0.00 0.00 0.00 80 1015.0
20260507023724 62 210 7.0 0.0 0.00 0.00 0.00 80 1015.0
20260507021723 62 210 7.0 0.0 0.00 0.00 0.00 80 1015.0
20260507015721 63 210 7.0 0.0 0.00 0.00 0.00 80 1014.0